DFATC EDHM-EDDH

Flight info

Callsign DFATC
Flight time 0h 45m
Altitude 2000
Route DCT
Aircraft C208/L-VGDW/C

Departure

Time 2026-05-04 18:03
Airport Hartenholm Airfield (EDHM)

Arrival

Time 2026-05-04 18:48
Airport Hamburg Helmut Schmidt Airport (EDDH)
Time Latitude Longitude Altitude Speed Heading
2026-05-04 17:54 53.91353 10.03633 112 ft 0 kts 148°
2026-05-04 17:58 53.91353 10.03634 112 ft 0 kts 154°
2026-05-04 17:58 53.91351 10.03626 115 ft 2 kts 282°
2026-05-04 17:58 53.91374 10.03611 113 ft 3 kts 314°
2026-05-04 17:58 53.91372 10.03562 114 ft 5 kts 310°
2026-05-04 17:59 53.91411 10.03508 112 ft 10 kts 316°
2026-05-04 17:59 53.91458 10.03492 114 ft 8 kts 46°
2026-05-04 17:59 53.91566 10.03722 115 ft 17 kts 49°
2026-05-04 18:00 53.91581 10.03738 115 ft 1 kts 233°
2026-05-04 18:02 53.91575 10.03725 115 ft 14 kts 229°
2026-05-04 18:02 53.91330 10.03251 185 ft 82 kts 229°
2026-05-04 18:03 53.90862 10.02475 535 ft 105 kts 233°
2026-05-04 18:03 53.90288 10.01578 908 ft 117 kts 226°
2026-05-04 18:03 53.89700 10.00671 1294 ft 112 kts 227°
2026-05-04 18:03 53.89040 10.00015 1671 ft 116 kts 185°
2026-05-04 18:04 53.88241 10.00264 1965 ft 121 kts 171°
2026-05-04 18:04 53.87419 10.00518 1956 ft 131 kts 172°
2026-05-04 18:04 53.85564 10.01175 1995 ft 134 kts 168°
2026-05-04 18:05 53.84670 10.01550 1993 ft 134 kts 168°
2026-05-04 18:05 53.83745 10.01843 1992 ft 137 kts 175°
2026-05-04 18:05 53.82803 10.02062 1995 ft 137 kts 175°
2026-05-04 18:05 53.81851 10.02278 1995 ft 141 kts 176°
2026-05-04 18:06 53.79914 10.02726 2000 ft 140 kts 175°
2026-05-04 18:06 53.78948 10.02985 1990 ft 140 kts 170°
2026-05-04 18:06 53.77993 10.03399 1994 ft 142 kts 168°
2026-05-04 18:07 53.77039 10.03827 1997 ft 141 kts 168°
2026-05-04 18:07 53.76109 10.04225 1995 ft 139 kts 168°
2026-05-04 18:07 53.75167 10.04631 2000 ft 138 kts 167°
2026-05-04 18:07 53.74205 10.04949 2001 ft 144 kts 175°
2026-05-04 18:08 53.73223 10.04946 2008 ft 140 kts 191°
2026-05-04 18:08 53.72300 10.04518 1959 ft 140 kts 204°
2026-05-04 18:08 53.71349 10.03932 1832 ft 146 kts 204°
2026-05-04 18:08 53.70400 10.03395 1722 ft 149 kts 199°
2026-05-04 18:09 53.68396 10.02393 1484 ft 149 kts 200°
2026-05-04 18:09 53.66468 10.01462 1495 ft 147 kts 200°
2026-05-04 18:10 53.65461 10.00972 1503 ft 153 kts 199°
2026-05-04 18:10 53.64426 10.00461 1508 ft 156 kts 199°
2026-05-04 18:10 53.63383 9.99935 1508 ft 158 kts 201°
2026-05-04 18:10 53.62318 9.99412 1506 ft 161 kts 199°
2026-05-04 18:11 53.61261 9.98875 1492 ft 159 kts 199°
2026-05-04 18:11 53.60199 9.98345 1489 ft 160 kts 200°
2026-05-04 18:11 53.59166 9.97835 1489 ft 148 kts 199°
2026-05-04 18:11 53.58209 9.97379 1488 ft 139 kts 200°
2026-05-04 18:12 53.57304 9.96962 1493 ft 132 kts 198°
2026-05-04 18:12 53.56424 9.96561 1506 ft 137 kts 198°
2026-05-04 18:12 53.55440 9.96096 1506 ft 153 kts 200°
2026-05-04 18:12 53.54397 9.95583 1533 ft 158 kts 200°
2026-05-04 18:13 53.53327 9.95070 1533 ft 161 kts 199°
2026-05-04 18:13 53.52443 9.93991 1528 ft 160 kts 243°
2026-05-04 18:13 53.52788 9.90646 1534 ft 154 kts 319°
2026-05-04 18:14 53.53740 9.89832 1527 ft 154 kts 343°
2026-05-04 18:14 53.54774 9.90053 1530 ft 157 kts 31°
2026-05-04 18:14 53.55387 9.91556 1531 ft 162 kts 73°
2026-05-04 18:15 53.55599 9.95323 1538 ft 163 kts 97°
2026-05-04 18:15 53.55235 9.99101 1496 ft 164 kts 98°
2026-05-04 18:15 53.55052 10.00970 1501 ft 164 kts 97°
2026-05-04 18:16 53.54738 10.02796 1491 ft 161 kts 112°
2026-05-04 18:16 53.54265 10.04503 1499 ft 162 kts 114°
2026-05-04 18:16 53.53768 10.06193 1493 ft 161 kts 126°
2026-05-04 18:17 53.51825 10.06621 1501 ft 153 kts 226°
2026-05-04 18:17 53.51433 10.05078 1505 ft 145 kts 274°
2026-05-04 18:17 53.51669 10.01703 1520 ft 140 kts 279°
2026-05-04 18:18 53.51777 10.00119 1530 ft 136 kts 279°
2026-05-04 18:18 53.51888 9.98569 1519 ft 131 kts 279°
2026-05-04 18:18 53.52094 9.97094 1513 ft 131 kts 303°
2026-05-04 18:18 53.52822 9.96212 1524 ft 132 kts 339°
2026-05-04 18:19 53.54607 9.95438 1526 ft 133 kts
2026-05-04 18:19 53.55510 9.95625 1527 ft 132 kts
2026-05-04 18:19 53.56409 9.95823 1502 ft 130 kts
2026-05-04 18:20 53.57302 9.96026 1505 ft 130 kts
2026-05-04 18:20 53.58193 9.96234 1501 ft 129 kts
2026-05-04 18:20 53.59080 9.96449 1507 ft 130 kts
2026-05-04 18:20 53.59863 9.97290 1504 ft 143 kts 46°
2026-05-04 18:21 53.60497 9.98589 1509 ft 141 kts 48°
2026-05-04 18:21 53.61118 9.99815 1491 ft 131 kts 46°
2026-05-04 18:21 53.61682 10.00942 1495 ft 120 kts 47°
2026-05-04 18:21 53.62161 10.01962 1204 ft 114 kts 50°
2026-05-04 18:22 53.62805 10.02675 753 ft 111 kts 360°
2026-05-04 18:22 53.63412 10.02246 626 ft 86 kts 321°
2026-05-04 18:22 53.63806 10.01627 455 ft 74 kts 314°
2026-05-04 18:22 53.63912 10.00776 240 ft 81 kts 256°
2026-05-04 18:23 53.63596 9.99997 82 ft 78 kts 237°
2026-05-04 18:23 53.63294 9.99366 43 ft 62 kts 237°
2026-05-04 18:23 53.63010 9.98796 70 ft 80 kts 227°
2026-05-04 18:23 53.62603 9.98185 547 ft 79 kts 220°
2026-05-04 18:24 53.62202 9.97502 963 ft 89 kts 230°
2026-05-04 18:24 53.61754 9.96645 1477 ft 107 kts 235°
2026-05-04 18:24 53.61191 9.95477 1514 ft 144 kts 236°
2026-05-04 18:24 53.60386 9.94500 1475 ft 146 kts 198°
2026-05-04 18:25 53.59454 9.94760 1485 ft 135 kts 150°
2026-05-04 18:25 53.58710 9.95675 1485 ft 129 kts 135°
2026-05-04 18:25 53.58455 9.97054 1480 ft 125 kts 76°
2026-05-04 18:25 53.58889 9.98251 1495 ft 121 kts 47°
2026-05-04 18:26 53.59428 9.99415 1490 ft 131 kts 50°
2026-05-04 18:26 53.59990 10.00642 1507 ft 133 kts 50°
2026-05-04 18:26 53.60549 10.01883 1509 ft 133 kts 50°
2026-05-04 18:26 53.61110 10.03120 1496 ft 137 kts 50°
2026-05-04 18:27 53.61677 10.04302 1468 ft 117 kts 31°
2026-05-04 18:27 53.62388 10.04378 1227 ft 99 kts 337°
2026-05-04 18:27 53.62936 10.03791 1026 ft 88 kts 326°
2026-05-04 18:27 53.63407 10.03192 815 ft 83 kts 318°
2026-05-04 18:28 53.63810 10.02526 575 ft 81 kts 316°
2026-05-04 18:28 53.64085 10.01736 350 ft 80 kts 283°
2026-05-04 18:28 53.64006 10.00851 210 ft 80 kts 244°
2026-05-04 18:28 53.63660 10.00103 88 ft 81 kts 237°
2026-05-04 18:29 53.63323 9.99410 43 ft 71 kts 232°
2026-05-04 18:29 53.63025 9.98793 42 ft 80 kts 232°
2026-05-04 18:29 53.62611 9.98050 284 ft 96 kts 232°
2026-05-04 18:29 53.62094 9.97087 464 ft 127 kts 233°
2026-05-04 18:30 53.60865 9.94674 860 ft 138 kts 214°
2026-05-04 18:30 53.59925 9.94529 1037 ft 141 kts 163°
2026-05-04 18:30 53.59144 9.95398 1224 ft 130 kts 132°
2026-05-04 18:31 53.58924 9.96756 1396 ft 121 kts 72°
2026-05-04 18:31 53.59387 9.97947 1500 ft 128 kts 46°
2026-05-04 18:31 53.59984 9.99147 1503 ft 136 kts 48°
2026-05-04 18:31 53.60596 10.00387 1504 ft 138 kts 47°
2026-05-04 18:32 53.61242 10.01565 1484 ft 140 kts 43°
2026-05-04 18:32 53.61703 10.02348 1494 ft 136 kts 43°
2026-05-04 18:32 53.62521 10.03741 1481 ft 120 kts 43°
2026-05-04 18:32 53.63095 10.04732 1498 ft 120 kts 41°
2026-05-04 18:33 53.63765 10.05602 1485 ft 121 kts 21°
2026-05-04 18:33 53.64588 10.05794 1485 ft 120 kts 356°
2026-05-04 18:33 53.65416 10.05585 1493 ft 121 kts 349°
2026-05-04 18:33 53.66123 10.05154 1632 ft 100 kts 287°
2026-05-04 18:34 53.65715 10.04102 1130 ft 129 kts 224°
2026-05-04 18:34 53.65298 10.03448 855 ft 112 kts 232°
2026-05-04 18:34 53.64854 10.02543 592 ft 91 kts 236°
2026-05-04 18:34 53.64489 10.01767 389 ft 83 kts 234°
2026-05-04 18:35 53.64122 10.01059 307 ft 79 kts 232°
2026-05-04 18:35 53.63774 10.00400 285 ft 73 kts 235°
2026-05-04 18:35 53.63408 9.99635 247 ft 96 kts 234°
2026-05-04 18:35 53.62807 9.98344 302 ft 115 kts 239°
2026-05-04 18:36 53.62474 9.97607 309 ft 118 kts 234°
2026-05-04 18:36 53.61958 9.96553 501 ft 111 kts 235°
2026-05-04 18:36 53.61475 9.95639 831 ft 102 kts 232°
2026-05-04 18:36 53.60906 9.94978 1147 ft 106 kts 192°
2026-05-04 18:37 53.60288 9.95570 1451 ft 115 kts 117°
2026-05-04 18:37 53.59849 9.96906 1499 ft 144 kts 121°
2026-05-04 18:37 53.59371 9.98482 1495 ft 152 kts 102°
2026-05-04 18:37 53.59525 10.00042 1481 ft 126 kts 53°
2026-05-04 18:38 53.60113 10.01006 1483 ft 113 kts 36°
2026-05-04 18:38 53.60732 10.01862 1497 ft 121 kts 36°
2026-05-04 18:38 53.61393 10.02781 1502 ft 126 kts 38°
2026-05-04 18:38 53.62084 10.03733 1491 ft 128 kts 37°
2026-05-04 18:39 53.62829 10.04412 1337 ft 120 kts
2026-05-04 18:39 53.63574 10.03892 1013 ft 107 kts 319°
2026-05-04 18:39 53.64078 10.03151 802 ft 91 kts 319°
2026-05-04 18:39 53.64331 10.02227 650 ft 95 kts 267°
2026-05-04 18:40 53.64164 10.01184 375 ft 91 kts 242°
2026-05-04 18:40 53.63785 10.00374 189 ft 81 kts 236°
2026-05-04 18:40 53.63447 9.99676 54 ft 71 kts 236°
2026-05-04 18:40 53.63173 9.99104 43 ft 55 kts 231°
2026-05-04 18:41 53.62846 9.98491 173 ft 85 kts 227°
2026-05-04 18:41 53.62399 9.97774 559 ft 90 kts 233°
2026-05-04 18:41 53.62015 9.96926 948 ft 93 kts 233°
2026-05-04 18:41 53.61600 9.96047 1360 ft 97 kts 238°
2026-05-04 18:42 53.61100 9.95131 1488 ft 124 kts 217°
2026-05-04 18:42 53.60189 9.94920 1477 ft 145 kts 169°
2026-05-04 18:42 53.59312 9.95755 1479 ft 149 kts 132°
2026-05-04 18:42 53.58986 9.97357 1479 ft 145 kts 86°
2026-05-04 18:43 53.59363 9.98805 1480 ft 135 kts 51°
2026-05-04 18:43 53.60010 9.99921 1487 ft 131 kts 38°
2026-05-04 18:43 53.60711 10.00915 1494 ft 133 kts 39°
2026-05-04 18:43 53.61400 10.01930 1498 ft 133 kts 39°
2026-05-04 18:44 53.62092 10.02951 1480 ft 130 kts 39°
2026-05-04 18:44 53.62556 10.03632 1484 ft 132 kts 39°
2026-05-04 18:44 53.63489 10.05022 1495 ft 138 kts 40°
2026-05-04 18:44 53.64214 10.06103 1494 ft 137 kts 39°
2026-05-04 18:45 53.64873 10.07090 1484 ft 118 kts 40°
2026-05-04 18:45 53.65471 10.07982 1484 ft 117 kts 39°
2026-05-04 18:45 53.66147 10.08611 1483 ft 111 kts
2026-05-04 18:45 53.66777 10.08051 1485 ft 107 kts 301°
2026-05-04 18:46 53.66746 10.06843 1487 ft 109 kts 242°
2026-05-04 18:46 53.66295 10.05739 1284 ft 123 kts 240°
2026-05-04 18:46 53.65808 10.04550 973 ft 120 kts 239°
2026-05-04 18:46 53.65344 10.03507 716 ft 106 kts 238°
2026-05-04 18:47 53.64892 10.02585 474 ft 101 kts 233°
2026-05-04 18:47 53.64456 10.01702 330 ft 94 kts 234°
2026-05-04 18:47 53.64051 10.00904 242 ft 87 kts 236°
2026-05-04 18:47 53.63674 10.00141 150 ft 79 kts 236°
2026-05-04 18:48 53.63344 9.99454 47 ft 68 kts 232°
2026-05-04 18:48 53.63099 9.98938 42 ft 45 kts 231°
2026-05-04 18:48 53.62903 9.98579 41 ft 34 kts 218°
2026-05-04 18:48 53.62724 9.98495 42 ft 20 kts 154°
2026-05-04 18:49 53.62711 9.98636 43 ft 10 kts 118°
2026-05-04 18:49 53.62702 9.98724 43 ft 5 kts 341°
2026-05-04 18:49 53.62703 9.98712 43 ft 0 kts 237°